Location: Dal�� Lhota
(48.7500°N, 14.0167°E)
Time: 01:34:12
(UTC+00:00)

Cosmos 1833 Rocket - Pass Details

Date: 24 September 2020
Orbit: 831 x 841 km, 71.0° (Epoch: 29 October)

Event Time Altitude Azimuth Distance (km) Brightness Sun altitude
Rises 18:19:29 0° 334° (NNW) 3,408 6.5 -14.3°
Reaches altitude 10° 18:22:07 10° 343° (NNW) 2,470 5.6 -14.7°
Maximum altitude 18:27:24 39° 51° (NE) 1,250 3.3 -15.6°
Enters shadow 18:30:03 25° 102° (ESE) 1,642 3.6 -16.0°
